This is the latest recevied weather packets stored in our database for station/object WC4PEM-13. If no packets are shown the sender has not sent any weather packets the latest 10 day(s).
| Time | Temp. | Humidity | Pressure | Rain* | Wind** | Luminosity | Snow |
|---|---|---|---|---|---|---|---|
| 1778110046 | 31.67° C | 49% | 1014.8 hPa | 0 mm | - | - | - |
| 1778109746 | 32.22° C | 48% | 1014.6 hPa | 0 mm | - | - | - |
| 1778109446 | 32.78° C | 48% | 1014.7 hPa | 0 mm | - | - | - |
| 1778109146 | 33.33° C | 47% | 1014.7 hPa | 0 mm | - | - | - |
| 1778108846 | 33.89° C | 47% | 1014.7 hPa | 0 mm | - | - | - |
| 1778108546 | 33.89° C | 47% | 1014.8 hPa | 0 mm | - | - | - |
| 1778108246 | 33.89° C | 47% | 1014.6 hPa | 0 mm | - | - | - |
| 1778107946 | 33.89° C | 47% | 1014.7 hPa | 0 mm | - | - | - |
| 1778107646 | 33.89° C | 46% | 1014.7 hPa | 0 mm | - | - | - |
| 1778107346 | 33.89° C | 45% | 1014.6 hPa | 0 mm | - | - | - |
| 1778107046 | 33.89° C | 45% | 1014.7 hPa | 0 mm | - | - | - |
| 1778106746 | 33.89° C | 48% | 1014.7 hPa | 0 mm | - | - | - |
| 1778106446 | 33.89° C | 46% | 1014.7 hPa | 0 mm | - | - | - |
| 1778106146 | 33.89° C | 51% | 1014.6 hPa | 0 mm | - | - | - |
| 1778105846 | 33.89° C | 48% | 1014.6 hPa | 0 mm | - | - | - |
| 1778105546 | 33.89° C | 47% | 1014.7 hPa | 0 mm | - | - | - |
| 1778105246 | 33.89° C | 47% | 1014.7 hPa | 0 mm | - | - | - |
| 1778104946 | 33.89° C | 46% | 1014.8 hPa | 0 mm | - | - | - |
| 1778104646 | 34.44° C | 45% | 1014.7 hPa | 0 mm | - | - | - |
| 1778104346 | 34.44° C | 44% | 1014.7 hPa | 0 mm | - | - | - |
| 1778104046 | 34.44° C | 46% | 1014.7 hPa | 0 mm | - | - | - |
| 1778103746 | 34.44° C | 47% | 1014.7 hPa | 0 mm | - | - | - |
| 1778103446 | 34.44° C | 47% | 1014.5 hPa | 0 mm | - | - | - |
| 1778103146 | 33.89° C | 46% | 1014.6 hPa | 0 mm | - | - | - |
| 1778102846 | 33.89° C | 47% | 1014.5 hPa | 0 mm | - | - | - |
* Rain latest hour (hover to see other rain measurements)
** Current wind speed in m/s (hover to see current wind gust speed)